Weather in Cherepovets

Russia / Vologda Oblast     59°07′38″N   37°54′24″E
temp.,
°C
wind,
m/s
gust,
m/s
humid.,
%
clouds,
%
prec.,
mm/h
press.,
hPa
HPBL,
m
14 may, fri
fri1400:00+13s279698 2.6 1014282
03:00+11s3109432 2.7 1015360
06:00+11s499223 0.0 1015371
09:00+13s57763 0.0 1016741
12:00+16s575612 0.0 10171522
15:00+18s5652100 0.0 10161264
18:00+18sse35598 0.0 1015825
21:00+13ese2276100 0.0 101524
15 may, sat
sat1500:00+11e349215 0.0 101467
03:00+11ese349714 0.0 101387
06:00+12ese3695100 0.0 1012213
09:00+17ese467952 0.0 1011621
12:00+20sse5768100 0.2 10101231
15:00+22s5760100 0.6 10081093
18:00+18sse4781100 2.5 1006233
21:00+14sse3896100 5.1 1006216
16 may, sun
sun1600:00+12s399011 0.9 1007163
03:00+11s379614 0.9 1007146
06:00+12s499758 0.0 1007279
09:00+15ssw598368 0.0 1008711
12:00+17ssw687446 1.0 10081184
15:00+18sw697635 3.1 10081190
18:00+17sw587940 1.4 1009890
21:00+13sw36923 1.9 1010111
17 may, mon
mon1700:00+12wsw359426 0.0 101292
03:00+11wsw229462 0.0 101431
06:00+13ssw23915 0.0 1015117
09:00+16ssw347718 0.0 1015500
12:00+20ssw346212 0.0 1015927
15:00+22sse4454100 0.0 10141440
18:00+20se356391 0.0 1014440
21:00+16e348127 0.0 101365
18 may, tue
tue1800:00+14ese3109362 0.1 1012182
03:00+14ese41192100 0.3 1010251
06:00+15ese4119111 0.0 1009291
09:00+21se6126681 0.0 1008633
12:00+25sse7114958 0.0 10071114
15:00+25sse71251100 0.0 10071403
18:00+24sse61256100 0.0 1006858
21:00+20se51469100 0.0 1005443